This is the latest recevied weather packets stored in our database for station/object K5NWZ. If no packets are shown the sender has not sent any weather packets the latest 10 day(s).
| Time | Temp. | Humidity | Pressure | Rain* | Wind** | Luminosity | Snow |
|---|---|---|---|---|---|---|---|
| 1777884885 | 6.67° C | 61% | 1018.7 hPa | 0 mm | - | 0 W/m² | - |
| 1777884582 | 7.22° C | 62% | 1018.7 hPa | 0 mm | - | 0 W/m² | - |
| 1777884279 | 7.78° C | 61% | 1018.9 hPa | 0 mm | - | 0 W/m² | - |
| 1777883975 | 7.78° C | 60% | 1018.8 hPa | 0 mm | - | 0 W/m² | - |
| 1777883672 | 7.78° C | 56% | 1018.9 hPa | 0 mm | - | 0 W/m² | - |
| 1777883367 | 7.78° C | 53% | 1019 hPa | 0 mm | - | 0 W/m² | - |
| 1777883065 | 8.33° C | 51% | 1019 hPa | 0 mm | - | 0 W/m² | - |
| 1777882761 | 7.78° C | 51% | 1018.8 hPa | 0 mm | - | 0 W/m² | - |
| 1777882458 | 8.33° C | 51% | 1018.9 hPa | 0 mm | - | 0 W/m² | - |
| 1777882154 | 8.33° C | 49% | 1019.1 hPa | 0 mm | - | 0 W/m² | - |
| 1777881851 | 8.33° C | 50% | 1019.2 hPa | 0 mm | - | 0 W/m² | - |
| 1777881548 | 8.33° C | 50% | 1019 hPa | 0 mm | - | 0 W/m² | - |
| 1777881245 | 8.89° C | 49% | 1019.1 hPa | 0 mm | - | 0 W/m² | - |
| 1777880942 | 8.89° C | 49% | 1019.1 hPa | 0 mm | - | 0 W/m² | - |
| 1777880640 | 8.89° C | 49% | 1019.5 hPa | 0 mm | - | 0 W/m² | - |
| 1777880338 | 8.89° C | 49% | 1019.6 hPa | 0 mm | - | 0 W/m² | - |
| 1777880036 | 8.89° C | 48% | 1019.6 hPa | 0 mm | - | 0 W/m² | - |
| 1777879734 | 9.44° C | 48% | 1019.4 hPa | 0 mm | - | 0 W/m² | - |
| 1777879430 | 10° C | 47% | 1019.4 hPa | 0 mm | - | 0 W/m² | - |
| 1777879128 | 10° C | 47% | 1019.5 hPa | 0 mm | - | 0 W/m² | - |
| 1777878824 | 10° C | 47% | 1019.4 hPa | 0 mm | - | 0 W/m² | - |
| 1777878522 | 10.56° C | 45% | 1019.7 hPa | 0 mm | - | 0 W/m² | - |
| 1777878218 | 10.56° C | 46% | 1019.6 hPa | 0 mm | - | 0 W/m² | - |
| 1777877914 | 10.56° C | 44% | 1019.6 hPa | 0 mm | - | 0 W/m² | - |
| 1777877611 | 11.11° C | 43% | 1019.7 hPa | 0 mm | - | 0 W/m² | - |
* Rain latest hour (hover to see other rain measurements)
** Current wind speed in m/s (hover to see current wind gust speed)